Hourly Data Report for July 03, 2021

KITCHENER/WATERLOO
ONTARIO
Current Station Operator: NAVCAN

43°27'39.000" N
80°22'43.000" W
321.60 m
6144239
71368
YKF

Download Data

Hourly Data (July 2021)
Hourly Data Report for July 3, 2021
TIME
LST
Temp Definition
°C
Dew Point Definition
°C
Rel Hum Definition
%
Precip. Amount Definition
mm

Wind Dir Definition
10's deg

Wind Spd Definition
km/h
Visibility Definition
km
Stn Press Definition
kPa
Hmdx Definition


Wind Chill Definition


Weather Definition


00:00 12.8 10.9 88 0.0 31 11 16.1 97.52     LegendNANA
01:00 12.7 10.8 88 0.0 30 17 16.1 97.47     LegendNANA
02:00 12.3 10.7 90 0.0 31 11 16.1 97.46     LegendNANA
03:00 11.9 11.0 94 0.0 30 11 16.1 97.47     LegendNANA
04:00 11.4 10.8 96 0.0 31 8 16.1 97.46     LegendNANA
05:00 11.4 10.8 96 0.0 30 8 16.1 97.48     LegendNANA
06:00 12.4 11.6 95 0.0 29 8 16.1 97.50     LegendNANA
07:00 14.0 12.2 89 0.0 32 11 16.1 97.50     LegendNANA
08:00 15.3 13.0 86 0.0 LegendMM 4 16.1 97.57     LegendNANA
09:00 17.1 13.7 80 0.0 29 11 16.1 97.51     Rain
10:00 19.9 13.6 67 0.0 29 13 16.1 97.49     LegendNANA
11:00 21.4 12.3 56 0.0 30 17 16.1 97.45     LegendNANA
12:00 22.2 12.3 53 0.0 32 15 16.1 97.38 25   LegendNANA
13:00 22.6 11.3 48 0.0 28 15 16.1 97.33 25   LegendNANA
14:00 23.6 9.9 41 0.0 16 9 16.1 97.30 25   LegendNANA
15:00 23.5 10.6 44 0.0 24 8 16.1 97.26 25   LegendNANA
16:00 24.0 10.6 42 0.0 19 9 16.1 97.22 26   LegendNANA
17:00 22.3 12.2 52 0.0 24 13 16.1 97.21 25   LegendNANA
18:00 22.4 12.5 53 0.0 28 9 16.1 97.22 25   LegendNANA
19:00 22.4 10.9 48 0.0 24 15 16.1 97.25     LegendNANA
20:00 18.6 12.0 65 0.0 16 8 16.1 97.27     LegendNANA
21:00 18.9 14.6 76 0.0 20 9 16.1 97.32     LegendNANA
22:00 17.8 14.0 78 0.0 19 9 16.1 97.33     LegendNANA
23:00 15.8 14.0 89 0.0 LegendMM 4 16.1 97.34     LegendNANA

Notes on Data Quality.

Legend

  • E = Estimated
  • M = Missing
  • NA = Not Available*
  • [empty] = Indicates an unobserved value
Date modified: